Hourly Weather Murashka

Today, 27 September, Monday

Time Temperature Precipitation Wind Pressure Humidity
00:00 +10°C° 0 mm 2 mps 738 mmHg 75%
01:00 +9°C° 0 mm 2 mps 738 mmHg 78%
02:00 +8°C° 0 mm 2 mps 738 mmHg 81%
03:00 +8°C° 0 mm 2 mps 738 mmHg 83%
04:00 +8°C° 0 mm 2 mps 738 mmHg 86%
05:00 +7°C° 0 mm 2 mps 738 mmHg 88%
06:00 +8°C° 0 mm 2 mps 738 mmHg 83%
07:00 +9°C° 0 mm 2 mps 738 mmHg 78%
08:00 +10°C° 0 mm 3 mps 738 mmHg 74%
09:00 +12°C° 0 mm 3 mps 738 mmHg 66%
10:00 +13°C° 0 mm 3 mps 738 mmHg 58%
11:00 +16°C° 0 mm 3 mps 738 mmHg 50%
12:00 +17°C° 0 mm 3 mps 738 mmHg 47%
13:00 +17°C° 0 mm 3 mps 738 mmHg 44%
14:00 +18°C° 0 mm 3 mps 737 mmHg 41%
15:00 +17°C° 0 mm 3 mps 737 mmHg 44%
16:00 +16°C° 0 mm 3 mps 737 mmHg 46%
17:00 +16°C° 0 mm 3 mps 737 mmHg 48%
18:00 +13°C° 0 mm 3 mps 737 mmHg 55%
19:00 +11°C° 0 mm 3 mps 738 mmHg 61%
20:00 +9°C° 0 mm 3 mps 738 mmHg 68%
21:00 +9°C° 0 mm 3 mps 738 mmHg 71%
22:00 +8°C° 0 mm 3 mps 738 mmHg 74%
23:00 +7°C° 0 mm 3 mps 738 mmHg 77%

Tomorrow, 28 September, Tuesday

Time Temperature Precipitation Wind Pressure Humidity
00:00 +7°C° 0 mm 3 mps 738 mmHg 79%
01:00 +7°C° 0 mm 3 mps 738 mmHg 82%
02:00 +5°C° 0 mm 3 mps 738 mmHg 84%
03:00 +5°C° 0 mm 3 mps 738 mmHg 85%
04:00 +5°C° 0 mm 3 mps 738 mmHg 87%
05:00 +4°C° 0 mm 3 mps 738 mmHg 89%
06:00 +5°C° 0 mm 3 mps 738 mmHg 83%
07:00 +8°C° 0 mm 3 mps 738 mmHg 77%
08:00 +9°C° 0 mm 3 mps 739 mmHg 71%
09:00 +11°C° 0 mm 3 mps 739 mmHg 64%
10:00 +12°C° 0 mm 3 mps 739 mmHg 56%
11:00 +14°C° 0 mm 3 mps 739 mmHg 49%
12:00 +16°C° 0 mm 3 mps 739 mmHg 46%
13:00 +16°C° 0 mm 3 mps 739 mmHg 43%
14:00 +17°C° 0 mm 3 mps 739 mmHg 41%
15:00 +16°C° 0 mm 3 mps 739 mmHg 43%
16:00 +16°C° 0 mm 3 mps 739 mmHg 45%
17:00 +14°C° 0 mm 3 mps 739 mmHg 48%
18:00 +13°C° 0 mm 3 mps 740 mmHg 52%
19:00 +11°C° 0 mm 3 mps 740 mmHg 56%
20:00 +10°C° 0 mm 3 mps 740 mmHg 60%
21:00 +9°C° 0 mm 3 mps 740 mmHg 61%
22:00 +9°C° 0 mm 3 mps 741 mmHg 63%
23:00 +8°C° 0 mm 3 mps 741 mmHg 65%

Day after tomorrow, 29 September, Wednesday

Time Temperature Precipitation Wind Pressure Humidity
00:00 +8°C° 0 mm 3 mps 741 mmHg 67%
01:00 +8°C° 0 mm 2 mps 741 mmHg 69%
02:00 +8°C° 0 mm 2 mps 741 mmHg 70%
03:00 +8°C° 0 mm 2 mps 741 mmHg 72%
04:00 +7°C° 0 mm 2 mps 741 mmHg 73%
05:00 +7°C° 0 mm 2 mps 741 mmHg 75%
06:00 +8°C° 0 mm 3 mps 742 mmHg 73%
07:00 +9°C° 0 mm 3 mps 742 mmHg 71%
08:00 +10°C° 0 mm 4 mps 742 mmHg 69%
09:00 +11°C° 0 mm 4 mps 742 mmHg 66%
10:00 +11°C° 0 mm 4 mps 743 mmHg 63%
11:00 +12°C° 0 mm 5 mps 743 mmHg 60%
12:00 +13°C° 0 mm 5 mps 743 mmHg 55%
13:00 +13°C° 0 mm 4 mps 742 mmHg 51%
14:00 +14°C° 0 mm 4 mps 742 mmHg 46%
15:00 +14°C° 0 mm 4 mps 742 mmHg 46%
16:00 +14°C° 0 mm 4 mps 742 mmHg 46%
17:00 +13°C° 0 mm 4 mps 742 mmHg 46%
18:00 +12°C° 0 mm 4 mps 742 mmHg 49%
19:00 +11°C° 0 mm 4 mps 742 mmHg 52%
20:00 +11°C° 0 mm 4 mps 743 mmHg 55%
21:00 +10°C° 0 mm 4 mps 743 mmHg 60%
22:00 +9°C° 0 mm 3 mps 743 mmHg 65%
23:00 +8°C° 0 mm 3 mps 743 mmHg 69%

30 September, Thursday

Time Temperature Precipitation Wind Pressure Humidity
00:00 +8°C° 0 mm 3 mps 743 mmHg 70%
01:00 +7°C° 0 mm 3 mps 743 mmHg 70%
02:00 +7°C° 0 mm 3 mps 743 mmHg 71%
03:00 +7°C° 0 mm 3 mps 743 mmHg 71%
04:00 +7°C° 0 mm 3 mps 743 mmHg 71%
05:00 +7°C° 0 mm 3 mps 743 mmHg 71%
06:00 +7°C° 0 mm 4 mps 743 mmHg 66%
07:00 +8°C° 0 mm 4 mps 743 mmHg 61%
08:00 +9°C° 0 mm 5 mps 743 mmHg 56%
09:00 +12°C° 0 mm 5 mps 743 mmHg 51%
10:00 +13°C° 0 mm 5 mps 744 mmHg 47%
11:00 +15°C° 0 mm 6 mps 744 mmHg 42%
12:00 +15°C° 0 mm 5 mps 744 mmHg 40%
13:00 +16°C° 0 mm 5 mps 743 mmHg 39%
14:00 +16°C° 0 mm 5 mps 743 mmHg 37%
15:00 +15°C° 0 mm 4 mps 743 mmHg 39%
16:00 +15°C° 0 mm 4 mps 743 mmHg 41%
17:00 +14°C° 0 mm 3 mps 743 mmHg 43%
18:00 +12°C° 0 mm 3 mps 743 mmHg 46%
19:00 +11°C° 0 mm 3 mps 743 mmHg 49%
20:00 +9°C° 0 mm 3 mps 744 mmHg 51%
21:00 +9°C° 0 mm 3 mps 744 mmHg 51%
22:00 +8°C° 0 mm 3 mps 744 mmHg 50%
23:00 +7°C° 0 mm 3 mps 744 mmHg 49%

1 October, Friday

Time Temperature Precipitation Wind Pressure Humidity
00:00 +7°C° 0 mm 3 mps 744 mmHg 50%
01:00 +7°C° 0 mm 3 mps 744 mmHg 51%
02:00 +5°C° 0 mm 3 mps 744 mmHg 51%
03:00 +5°C° 0 mm 3 mps 744 mmHg 53%
04:00 +5°C° 0 mm 3 mps 744 mmHg 54%
05:00 +4°C° 0 mm 3 mps 744 mmHg 55%
06:00 +5°C° 0 mm 3 mps 744 mmHg 52%
07:00 +7°C° 0 mm 3 mps 745 mmHg 50%
08:00 +7°C° 0 mm 4 mps 745 mmHg 47%
09:00 +10°C° 0 mm 4 mps 745 mmHg 42%
10:00 +12°C° 0 mm 4 mps 745 mmHg 37%
11:00 +14°C° 0 mm 5 mps 745 mmHg 33%
12:00 +14°C° 0 mm 4 mps 744 mmHg 31%
13:00 +15°C° 0 mm 4 mps 744 mmHg 30%
14:00 +17°C° 0 mm 4 mps 744 mmHg 28%
15:00 +15°C° 0 mm 4 mps 744 mmHg 30%
16:00 +14°C° 0 mm 3 mps 743 mmHg 33%
17:00 +13°C° 0 mm 3 mps 743 mmHg 35%
18:00 +12°C° 0 mm 3 mps 743 mmHg 37%
19:00 +11°C° 0 mm 3 mps 743 mmHg 40%
20:00 +9°C° 0 mm 3 mps 743 mmHg 42%
21:00 +9°C° 0 mm 3 mps 743 mmHg 43%
22:00 +8°C° 0 mm 3 mps 743 mmHg 43%
23:00 +8°C° 0 mm 3 mps 743 mmHg 44%

2 October, Saturday

Time Temperature Precipitation Wind Pressure Humidity
00:00 +7°C° 0 mm 3 mps 743 mmHg 46%
01:00 +7°C° 0 mm 3 mps 743 mmHg 47%
02:00 +5°C° 0 mm 3 mps 743 mmHg 49%
03:00 +5°C° 0 mm 3 mps 743 mmHg 50%
04:00 +4°C° 0 mm 3 mps 743 mmHg 51%
05:00 +4°C° 0 mm 3 mps 743 mmHg 52%
06:00 +5°C° 0 mm 4 mps 743 mmHg 49%
07:00 +6°C° 0 mm 4 mps 743 mmHg 46%
08:00 +7°C° 0 mm 5 mps 743 mmHg 43%
09:00 +9°C° 0 mm 5 mps 743 mmHg 38%
10:00 +12°C° 0 mm 5 mps 742 mmHg 33%
11:00 +14°C° 0 mm 6 mps 742 mmHg 28%
12:00 +15°C° 0 mm 6 mps 742 mmHg 26%
13:00 +15°C° 0 mm 6 mps 741 mmHg 25%
14:00 +16°C° 0 mm 6 mps 741 mmHg 23%
15:00 +15°C° 0 mm 5 mps 741 mmHg 24%
16:00 +15°C° 0 mm 5 mps 741 mmHg 26%
17:00 +14°C° 0 mm 4 mps 740 mmHg 28%
18:00 +12°C° 0 mm 4 mps 740 mmHg 30%
19:00 +10°C° 0 mm 4 mps 741 mmHg 32%
20:00 +9°C° 0 mm 3 mps 741 mmHg 35%
21:00 +8°C° 0 mm 3 mps 741 mmHg 36%
22:00 +8°C° 0 mm 3 mps 740 mmHg 38%
23:00 +7°C° 0 mm 3 mps 740 mmHg 40%
Show more

We Need Your Consent

Meteoprog and our Service Providers may store and access personal data such as cookies, device identifiers or other similar technologies on your device and process such data to personalise content and ads, as well as provide social media features and to analyse the traffic.

  • Store and/or access information on your device

    Cookies, device identifiers or other information can be stored or accessed on your device for the purposes indicated above.

  • Personalised ads and content, ad and content measurement, audience insights, and products development

    Ads and content can be personalised based on a profile. More data can be added to better personalise ads and content. Ad and content performance can be measured. Insights about the audience who saw the ads and content can be derived. Such data can be used to develop or improve user’s experience, systems and software.

By clicking ‘I Agree’ you will allow the use of indicated cookies, device identifiers, web beacons or other similar technologies. Your settings can be changed in the browser on your device.

For certain purposes, legitimate interests may be relied on, rather than consent. You can read more about this in our Privacy and Cookie Policy.